SWA2250 PHNL-PHTO

Flight info

Callsign SWA2250
Flight time 0h 33m
Altitude 25000
Route MKK5 MKK POHOU LYCHI1
Aircraft B38M/M-SDE1FGHILORVWXY/HB1

Departure

Time 2026-04-14 03:16
Airport Daniel K. Inouye International Airport (PHNL)

Arrival

Time 2026-04-14 03:49
Airport Hilo International Airport (PHTO)
Time Latitude Longitude Altitude Speed Heading
2026-04-14 02:21 21.32959 -157.92082 26 ft 0 kts 98°
2026-04-14 03:05 21.32960 -157.92083 36 ft 1 kts 98°
2026-04-14 03:05 21.32963 -157.92108 26 ft 4 kts 98°
2026-04-14 03:06 21.32963 -157.92134 26 ft 4 kts 66°
2026-04-14 03:06 21.32947 -157.92152 26 ft 4 kts 13°
2026-04-14 03:06 21.32926 -157.92156 26 ft 4 kts
2026-04-14 03:06 21.32899 -157.92160 26 ft 4 kts
2026-04-14 03:07 21.32872 -157.92165 26 ft 4 kts
2026-04-14 03:07 21.32848 -157.92169 26 ft 1 kts
2026-04-14 03:07 21.32825 -157.92171 26 ft 4 kts 355°
2026-04-14 03:07 21.32799 -157.92164 27 ft 4 kts 330°
2026-04-14 03:08 21.32780 -157.92146 27 ft 4 kts 300°
2026-04-14 03:08 21.32772 -157.92120 27 ft 3 kts 270°
2026-04-14 03:08 21.32772 -157.92097 26 ft 3 kts 270°
2026-04-14 03:08 21.32772 -157.92093 26 ft 1 kts 270°
2026-04-14 03:10 21.32772 -157.92107 27 ft 9 kts 270°
2026-04-14 03:10 21.32772 -157.92258 27 ft 26 kts 270°
2026-04-14 03:10 21.32774 -157.92468 27 ft 29 kts 270°
2026-04-14 03:11 21.32772 -157.92674 27 ft 27 kts 269°
2026-04-14 03:11 21.32742 -157.92877 27 ft 29 kts 270°
2026-04-14 03:11 21.32741 -157.93094 27 ft 31 kts 270°
2026-04-14 03:11 21.32741 -157.93333 27 ft 33 kts 271°
2026-04-14 03:12 21.32742 -157.93583 27 ft 34 kts 269°
2026-04-14 03:12 21.32741 -157.93835 27 ft 33 kts 270°
2026-04-14 03:12 21.32728 -157.94050 27 ft 23 kts 243°
2026-04-14 03:12 21.32594 -157.94145 27 ft 24 kts 209°
2026-04-14 03:13 21.32440 -157.94236 27 ft 26 kts 208°
2026-04-14 03:13 21.32275 -157.94335 27 ft 28 kts 209°
2026-04-14 03:13 21.32096 -157.94442 27 ft 30 kts 209°
2026-04-14 03:13 21.31906 -157.94555 27 ft 32 kts 208°
2026-04-14 03:14 21.31711 -157.94656 27 ft 31 kts 189°
2026-04-14 03:14 21.31494 -157.94636 27 ft 32 kts 172°
2026-04-14 03:14 21.31267 -157.94601 27 ft 34 kts 172°
2026-04-14 03:14 21.31067 -157.94579 27 ft 25 kts 174°
2026-04-14 03:15 21.30888 -157.94567 27 ft 27 kts 180°
2026-04-14 03:15 21.30709 -157.94561 26 ft 18 kts 155°
2026-04-14 03:15 21.30681 -157.94429 30 ft 35 kts 90°
2026-04-14 03:15 21.30680 -157.93943 32 ft 94 kts 90°
2026-04-14 03:16 21.30680 -157.93058 23 ft 140 kts 91°
2026-04-14 03:16 21.30679 -157.91938 362 ft 147 kts 92°
2026-04-14 03:16 21.30670 -157.90853 1128 ft 148 kts 94°
2026-04-14 03:16 21.30684 -157.89684 1814 ft 173 kts 94°
2026-04-14 03:17 21.30692 -157.88385 2972 ft 180 kts 95°
2026-04-14 03:17 21.29968 -157.85388 4345 ft 238 kts 107°
2026-04-14 03:17 21.29511 -157.83583 5127 ft 261 kts 106°
2026-04-14 03:18 21.29035 -157.81636 5987 ft 278 kts 105°
2026-04-14 03:18 21.28551 -157.79608 7073 ft 283 kts 105°
2026-04-14 03:18 21.28063 -157.77536 8114 ft 290 kts 105°
2026-04-14 03:18 21.27565 -157.75414 9157 ft 297 kts 105°
2026-04-14 03:19 21.27058 -157.73239 10163 ft 304 kts 106°
2026-04-14 03:19 21.26532 -157.70978 10819 ft 322 kts 106°
2026-04-14 03:19 21.25974 -157.68576 11337 ft 343 kts 106°
2026-04-14 03:19 21.25382 -157.66034 11939 ft 358 kts 106°
2026-04-14 03:20 21.24770 -157.63407 12637 ft 368 kts 106°
2026-04-14 03:20 21.24146 -157.60733 13567 ft 371 kts 106°
2026-04-14 03:20 21.23515 -157.58030 14319 ft 377 kts 106°
2026-04-14 03:20 21.22874 -157.55283 15072 ft 381 kts 105°
2026-04-14 03:21 21.22226 -157.52513 15791 ft 386 kts 105°
2026-04-14 03:21 21.21568 -157.49703 16518 ft 391 kts 105°
2026-04-14 03:21 21.20903 -157.46867 17216 ft 395 kts 105°
2026-04-14 03:21 21.20229 -157.43994 17895 ft 399 kts 105°
2026-04-14 03:22 21.19547 -157.41089 18531 ft 404 kts 105°
2026-04-14 03:22 21.18857 -157.38156 19091 ft 408 kts 106°
2026-04-14 03:22 21.18160 -157.35191 19635 ft 413 kts 106°
2026-04-14 03:22 21.17454 -157.32192 20180 ft 417 kts 107°
2026-04-14 03:23 21.16741 -157.29162 20710 ft 422 kts 107°
2026-04-14 03:23 21.16021 -157.26105 21240 ft 426 kts 107°
2026-04-14 03:23 21.15290 -157.23008 21761 ft 431 kts 108°
2026-04-14 03:23 21.14553 -157.19885 22277 ft 435 kts 108°
2026-04-14 03:24 21.13592 -157.16817 22741 ft 433 kts 122°
2026-04-14 03:24 21.12025 -157.14077 23253 ft 432 kts 128°
2026-04-14 03:24 21.10356 -157.11325 23697 ft 437 kts 129°
2026-04-14 03:24 21.08679 -157.08604 24146 ft 439 kts 129°
2026-04-14 03:25 21.06983 -157.05883 24585 ft 441 kts 129°
2026-04-14 03:25 21.05263 -157.03143 24923 ft 446 kts 129°
2026-04-14 03:25 21.03521 -157.00374 25010 ft 455 kts 129°
2026-04-14 03:25 21.01728 -156.97526 25009 ft 468 kts 129°
2026-04-14 03:26 20.99882 -156.94594 25008 ft 480 kts 129°
2026-04-14 03:26 20.98002 -156.91612 25042 ft 489 kts 129°
2026-04-14 03:26 20.96085 -156.88573 25050 ft 494 kts 129°
2026-04-14 03:26 20.94161 -156.85523 25078 ft 495 kts 129°
2026-04-14 03:27 20.92530 -156.82940 25082 ft 495 kts 129°
2026-04-14 03:27 20.90600 -156.79883 25084 ft 495 kts 129°
2026-04-14 03:27 20.88671 -156.76831 25084 ft 495 kts 129°
2026-04-14 03:27 20.86744 -156.73784 25080 ft 495 kts 129°
2026-04-14 03:28 20.84818 -156.70739 25074 ft 495 kts 129°
2026-04-14 03:28 20.82894 -156.67700 25047 ft 494 kts 129°
2026-04-14 03:28 20.80965 -156.64653 25047 ft 494 kts 129°
2026-04-14 03:28 20.79034 -156.61607 25049 ft 494 kts 129°
2026-04-14 03:29 20.77107 -156.58567 25048 ft 494 kts 129°
2026-04-14 03:29 20.75179 -156.55528 25048 ft 494 kts 129°
2026-04-14 03:29 20.73249 -156.52487 25050 ft 494 kts 129°
2026-04-14 03:29 20.71320 -156.49449 25049 ft 494 kts 129°
2026-04-14 03:30 20.69388 -156.46408 25053 ft 494 kts 129°
2026-04-14 03:30 20.67457 -156.43367 25057 ft 495 kts 128°
2026-04-14 03:30 20.65823 -156.40120 25059 ft 501 kts 117°
2026-04-14 03:30 20.64499 -156.36881 25059 ft 501 kts 118°
2026-04-14 03:31 20.63087 -156.33473 25055 ft 502 kts 118°
2026-04-14 03:31 20.61681 -156.30060 25061 ft 502 kts 118°
2026-04-14 03:31 20.60280 -156.26655 25061 ft 502 kts 118°
2026-04-14 03:31 20.58897 -156.23296 24602 ft 491 kts 118°
2026-04-14 03:32 20.57517 -156.19948 23771 ft 492 kts 118°
2026-04-14 03:32 20.56144 -156.16617 23031 ft 488 kts 118°
2026-04-14 03:32 20.54768 -156.13282 22285 ft 483 kts 118°
2026-04-14 03:32 20.53436 -156.10055 21596 ft 479 kts 118°
2026-04-14 03:33 20.52084 -156.06782 20927 ft 473 kts 118°
2026-04-14 03:33 20.50765 -156.03588 20289 ft 469 kts 118°
2026-04-14 03:33 20.49901 -156.01497 19887 ft 465 kts 117°
2026-04-14 03:33 20.48595 -155.98340 19279 ft 460 kts 117°
2026-04-14 03:34 20.46036 -155.92159 18079 ft 451 kts 117°
2026-04-14 03:34 20.44775 -155.89112 17434 ft 447 kts 117°
2026-04-14 03:34 20.43527 -155.86102 16825 ft 442 kts 117°
2026-04-14 03:35 20.42292 -155.83124 16229 ft 437 kts 117°
2026-04-14 03:35 20.41068 -155.80174 15645 ft 433 kts 116°
2026-04-14 03:35 20.39855 -155.77254 15093 ft 428 kts 116°
2026-04-14 03:35 20.38654 -155.74362 14559 ft 424 kts 116°
2026-04-14 03:36 20.37468 -155.71509 14079 ft 419 kts 116°
2026-04-14 03:36 20.36292 -155.68680 13504 ft 416 kts 116°
2026-04-14 03:36 20.35126 -155.65879 12989 ft 411 kts 116°
2026-04-14 03:36 20.33977 -155.63121 12556 ft 404 kts 116°
2026-04-14 03:37 20.32850 -155.60414 12205 ft 396 kts 115°
2026-04-14 03:37 20.31748 -155.57771 11925 ft 386 kts 115°
2026-04-14 03:37 20.30656 -155.55151 11659 ft 376 kts 115°
2026-04-14 03:37 20.29619 -155.52667 11441 ft 367 kts 115°
2026-04-14 03:38 20.28585 -155.50189 11232 ft 357 kts 115°
2026-04-14 03:38 20.27591 -155.47808 11051 ft 347 kts 115°
2026-04-14 03:38 20.26620 -155.45486 10881 ft 338 kts 115°
2026-04-14 03:38 20.25680 -155.43236 10744 ft 328 kts 115°
2026-04-14 03:39 20.24765 -155.41046 10603 ft 319 kts 115°
2026-04-14 03:39 20.23878 -155.38925 10483 ft 309 kts 116°
2026-04-14 03:39 20.23017 -155.36869 10369 ft 299 kts 116°
2026-04-14 03:39 20.22182 -155.34874 10261 ft 290 kts 116°
2026-04-14 03:40 20.21375 -155.32948 10163 ft 280 kts 116°
2026-04-14 03:40 20.20590 -155.31072 9892 ft 278 kts 116°
2026-04-14 03:40 20.19802 -155.29191 9707 ft 271 kts 115°
2026-04-14 03:40 20.19059 -155.27419 9922 ft 258 kts 116°
2026-04-14 03:41 20.18327 -155.25673 10022 ft 258 kts 116°
2026-04-14 03:41 20.17573 -155.23892 9671 ft 272 kts 118°
2026-04-14 03:41 20.16406 -155.22279 9081 ft 281 kts 144°
2026-04-14 03:41 20.14698 -155.21256 8536 ft 286 kts 157°
2026-04-14 03:42 20.12864 -155.20350 7959 ft 295 kts 157°
2026-04-14 03:42 20.10987 -155.19438 7388 ft 296 kts 157°
2026-04-14 03:42 20.09124 -155.18542 6840 ft 293 kts 156°
2026-04-14 03:42 20.07292 -155.17669 6421 ft 286 kts 156°
2026-04-14 03:43 20.05488 -155.16815 6052 ft 277 kts 156°
2026-04-14 03:43 20.03759 -155.15996 5739 ft 267 kts 156°
2026-04-14 03:43 20.02093 -155.15209 5450 ft 257 kts 156°
2026-04-14 03:43 20.00486 -155.14451 5170 ft 248 kts 156°
2026-04-14 03:44 19.98900 -155.13702 4905 ft 253 kts 156°
2026-04-14 03:44 19.97248 -155.12923 4590 ft 259 kts 156°
2026-04-14 03:44 19.95633 -155.12161 4276 ft 259 kts 156°
2026-04-14 03:44 19.93987 -155.11385 4107 ft 253 kts 156°
2026-04-14 03:45 19.92409 -155.10641 3983 ft 244 kts 156°
2026-04-14 03:45 19.90861 -155.09911 3859 ft 236 kts 156°
2026-04-14 03:45 19.89381 -155.09214 3652 ft 233 kts 156°
2026-04-14 03:45 19.87883 -155.08508 3138 ft 237 kts 156°
2026-04-14 03:46 19.86339 -155.07914 2579 ft 238 kts 169°
2026-04-14 03:46 19.84683 -155.07837 2057 ft 238 kts 179°
2026-04-14 03:46 19.83033 -155.07868 1677 ft 233 kts 179°
2026-04-14 03:46 19.81484 -155.07906 1594 ft 211 kts 178°
2026-04-14 03:47 19.80102 -155.07946 1567 ft 183 kts 179°
2026-04-14 03:47 19.78947 -155.07996 1529 ft 154 kts 179°
2026-04-14 03:47 19.77855 -155.08047 1526 ft 160 kts 179°
2026-04-14 03:47 19.76728 -155.08086 1523 ft 162 kts 179°
2026-04-14 03:48 19.75601 -155.08121 1507 ft 159 kts 179°
2026-04-14 03:48 19.74522 -155.08164 1257 ft 156 kts 178°
2026-04-14 03:48 19.73430 -155.08174 1051 ft 157 kts 177°
2026-04-14 03:48 19.72458 -155.07828 870 ft 147 kts 135°
2026-04-14 03:49 19.72132 -155.06809 465 ft 152 kts 94°
2026-04-14 03:49 19.72140 -155.05690 123 ft 151 kts 91°
2026-04-14 03:49 19.72146 -155.04692 52 ft 114 kts 90°
2026-04-14 03:49 19.72142 -155.04164 51 ft 33 kts 90°
2026-04-14 03:50 19.72036 -155.04049 52 ft 20 kts 184°
2026-04-14 03:50 19.71884 -155.04058 54 ft 21 kts 181°
2026-04-14 03:50 19.71752 -155.04055 52 ft 20 kts 179°
2026-04-14 03:50 19.71652 -155.04042 53 ft 13 kts 165°
2026-04-14 03:51 19.71573 -155.04039 53 ft 8 kts 180°
2026-04-14 03:51 19.71558 -155.04039 54 ft 0 kts 180°